Hourly Data Report for June 23, 2022

KUGAARUK CLIMATE
NUNAVUT
Current Station Operator: ECCC - MSC

68°32'15.060" N
89°47'47.020" W
15.80 m
2303094
71407
NBB

Download Data

Hourly Data (June 2022)
Hourly Data Report for June 23, 2022
TIME
LST
Temp Definition
°C
Dew Point Definition
°C
Rel Hum Definition
%
Precip. Amount Definition
mm

Wind Dir Definition
10's deg

Wind Spd Definition
km/h
Visibility Definition
km
Stn Press Definition
kPa
Hmdx Definition


Wind Chill Definition


Weather Definition


00:00 8.1 5.1 81 0.0 7 9   101.22     LegendNANA
01:00 7.8 5.2 84 0.0 8 7   101.18     LegendNANA
02:00 7.7 4.9 83 0.0 9 6   101.15     LegendNANA
03:00 7.5 4.6 82 0.0 6 6   101.13     LegendNANA
04:00 9.2 4.4 72 0.2 24 10   101.11     LegendNANA
05:00 8.3 3.9 74 0.0 29 6   101.12     LegendNANA
06:00 11.6 4.9 63 0.0 2 11   101.09     LegendNANA
07:00 9.1 2.7 64 0.0 2 15   101.09     LegendNANA
08:00 11.8 4.3 60 0.0 36 10   101.07     LegendNANA
09:00 12.6 4.2 57 0.0 2 15   101.06     LegendNANA
10:00 12.7 4.6 58 0.0 2 19   101.05     LegendNANA
11:00 13.3 5.6 60 0.0 2 22   101.04     LegendNANA
12:00 14.1 4.7 53 0.0 1 22   101.05     LegendNANA
13:00 13.7 5.5 57 0.0 1 26   101.06     LegendNANA
14:00 13.0 5.5 60 0.0 1 28   101.07     LegendNANA
15:00 12.5 5.7 63 0.0 2 27   101.07     LegendNANA
16:00 11.7 5.3 65 0.0 2 28   101.06     LegendNANA
17:00 10.9 5.2 68 0.0 2 26   101.06     LegendNANA
18:00 9.6 3.3 65 0.0 2 18   101.07     LegendNANA
19:00 9.1 2.0 61 0.0 2 15   101.08     LegendNANA
20:00 7.1 0.4 62 0.0 2 16   101.08     LegendNANA
21:00 5.5 -0.2 67 0.0 2 14   101.09     LegendNANA
22:00 4.0 0.1 76 0.0 3 9   101.09     LegendNANA
23:00 3.2 0.7 84 0.0 2 6   101.07     LegendNANA

Notes on Data Quality.

Legend

  • E = Estimated
  • M = Missing
  • NA = Not Available*
  • [empty] = Indicates an unobserved value
Date modified: